Historyczne dane pomiarowe

Dodano dane terminowe – wersja testowa.

Dane z okresu 1951-2019

Wersja bazy: 1.34 [2019-03-16, lista zmian], aktualizacja planowana na 2019-04-15

Dane meteo z obszaru Polski uzyskane na podstawie danych udostępnionych przez Instytut Meteorologii i Gospodarki Wodnej – Państwowy Instytut Badawczy.

 

Wybierz Datę:    

       

TemperaturaWilgotnośćWiatrCiśnienieOpadyŚniegCzas trwania zjawisk
 Stacja t tx tn tng RH VA  wxwx mslp ppp RRR   cm mm wxwxwxwxwxwxwx
1956-11-09 -8.0 -5.3-14.4- 86.0- 4.0 1.3---- 0.0-- 7---------
1956-11-08 -8.4 -2.9-12.5- 81.0- 0.7 1.3---- 0.0-- 9---------
1956-11-07 -1.8 0.6 -4.4- 89.8- 8.0 3.3---- 4.5-- 9---------
1956-11-06 0.2 2.1 -1.3- 92.0- 5.7 2.3---- 2.2------------
1956-11-05 -0.1 2.3 -7.4- 83.0- 5.3 3.0---- 1.3------------
1956-11-04 -3.0 2.6 -7.4- 90.3- 2.7 1.0---- 0.0------------
1956-11-03 -1.6 2.6 -4.4- 87.5- 5.3 1.3---- 0.0------------
1956-11-02 0.8 6.5 -2.9- 78.0- 6.7 2.0---- 0.0------------
1956-11-01 -0.8 6.0 -9.1- 79.5- 0.0 2.7---- 0.0------------
1956-10-31 -4.5 2.6 -7.3- 91.0- 5.3 3.7---- 0.0------------
1956-10-30 3.6 6.6 1.1- 90.3- 8.0 2.3---- 0.1------------
1956-10-29 5.7 9.5 3.3- 79.8- 8.0 2.7---- 1.2------------
1956-10-28 9.6 13.5 6.5- 84.5- 5.3 2.7---- 1.1------------
1956-10-27 8.2 12.9 1.3- 90.5- 7.7 1.0---- 1.3------------
1956-10-26 9.2 17.0 2.5- 83.3- 0.3 1.7---- 0.0------------
1956-10-25 9.3 16.1 -0.1- 79.5- 2.7 2.3---- 0.0------------
1956-10-24 10.0 13.6 4.1- 87.5- 2.7 2.0---- 0.0------------
1956-10-23 9.8 17.0 7.2- 87.8- 0.0 1.7---- 0.0------------
1956-10-22 12.0 17.5 7.5- 84.5- 2.0 2.0---- 0.0------------
1956-10-21 11.9 16.5 9.0- 86.8- 5.3 3.3---- 0.0------------
1956-10-20 10.4 11.1 7.4- 87.3- 8.0 3.7---- 0.4------------
1956-10-19 10.4 12.4 7.5- 70.5- 8.0 3.0---- 0.0------------
1956-10-18 7.8 13.4 -2.9- 70.0- 3.7 1.7---- 0.0------------
1956-10-17 2.6 10.4 -2.9- 86.8- 2.7 0.7---- 0.0------------
1956-10-16 3.5 9.9 -1.7- 83.8- 3.7 2.7---- 0.0------------
1956-10-15 5.2 9.9 0.3- 77.3- 0.0 1.7---- 0.0------------
1956-10-14 8.4 10.9 5.2- 70.5- 4.0 5.7---- 3.1------------
1956-10-13 9.0 10.5 3.6- 69.8- 8.0 7.3---- 0.8------------
1956-10-12 7.0 11.1 3.1- 74.5- 5.3 5.3---- 0.0------------
1956-10-11 4.6 8.5 -0.9- 73.5- 8.0 2.0---- 0.0------------
1956-10-10 4.8 7.0 0.5- 71.5- 7.3 2.7---- 0.0------------
1956-10-09 2.9 9.9 -1.9- 85.3- 3.0 0.0---- 0.2------------
1956-10-08 4.5 11.4 -1.4- 85.0- 1.3 1.0---- 0.0------------
1956-10-07 5.8 8.9 4.1- 75.3- 5.3 3.7---- 1.0------------
1956-10-06 9.0 12.1 6.5- 96.8- 8.0 2.3---- 23.0------------
1956-10-05 10.8 16.0 6.8- 86.5- 7.3 0.7---- 2.6------------
1956-10-04 11.4 17.1 9.0- 97.5- 8.0 0.7---- 8.2------------
1956-10-03 18.7 23.9 6.0- 63.3- 8.0 2.3---- 0.4------------
1956-10-02 17.9 24.9 8.5- 72.3- 1.3 4.3---- 0.0------------
1956-10-01 16.7 23.7 8.4- 79.0- 2.7 2.0---- 0.0------------
1956-09-30 15.4 20.2 11.2- 85.5- 5.3 0.7---- 0.0------------
1956-09-29 17.0 21.0 10.6- 78.5- 6.7 2.3---- 0.0------------
1956-09-28 14.7 19.5 11.5- 83.8- 6.7 3.0---- 0.0------------
1956-09-27 17.0 23.0 11.0- 64.3- 7.3 3.0---- 0.0------------
1956-09-26 14.2 21.0 5.1- 63.3- 0.0 3.0---- 0.0------------
1956-09-25 9.8 20.0 -0.4- 82.5- 2.3 1.3---- 0.0------------
1956-09-24 8.4 14.4 2.8- 71.3- 0.0 2.0---- 0.0------------
1956-09-23 10.8 17.5 2.3- 80.5- 2.7 1.0---- 0.0------------
1956-09-22 9.8 20.0 0.5- 84.3- 2.7 1.0---- 0.1------------
1956-09-21 11.0 19.6 6.5- 82.5- 0.0 2.3---- 0.0------------
1956-09-20 9.3 17.0 -1.9- 76.3- 6.7 1.7---- 0.0------------
1956-09-19 5.8 14.1 -0.4- 86.3- 4.0 0.3---- 0.0------------
1956-09-18 6.6 9.5 4.4- 89.0- 5.3 2.0---- 1.5------------
1956-09-17 7.5 13.9 5.1- 91.8- 6.7 2.0---- 5.1------------
1956-09-16 13.5 16.5 7.0- 80.5- 7.3 2.7---- 0.1------------
1956-09-15 12.6 16.2 5.1- 79.0- 6.0 2.3---- 0.0------------
1956-09-14 9.2 12.4 5.8- 80.3- 8.0 3.3---- 0.0------------
1956-09-13 7.9 12.1 6.0- 90.3- 5.3 2.0---- 7.0------------
1956-09-12 11.4 15.5 8.8- 90.0- 6.7 2.0---- 9.6------------
1956-09-11 14.5 20.4 10.5- 87.8- 8.0 1.3---- 3.0------------
272.6 ms

 

Źródłem pochodzenia danych jest Instytut Meteorologii i Gospodarki Wodnej – Państwowy Instytut Badawczy. Dane Instytutu Meteorologii i Gospodarki Wodnej – Państwowego Instytutu Badawczego zostały przetworzone.

Dane źródłowe można odnaleźć na stronie https://dane.imgw.pl